Location: Prescott
(34.5400°N, 112.4680°W)
Time: 09:03:28
(UTC-07:00)

Amateur Radio Satellites - All Passes

Search period start: 05 March 2015 08:33
Search period end: 06 March 2015 08:33
Location: Prescott, 34.5400°N, 112.4680°W

Satellite Date Start Highest point End Downlink Frequencies (MHz)
Time Altitude Azimuth
GOMX 1 05 Mar 08:44:36 08:48:24 31° 96° (E) 08:52:07 467.674
SEEDS 05 Mar 08:50:41 08:54:23 29° 96° (E) 08:58:08 437.485
CINEMA 3 05 Mar 08:53:53 08:55:37 13° 91° (E) 08:57:35 145.822/145.860
BRITE-PL 05 Mar 08:54:15 08:58:39 69° 101° (E) 09:02:47 437.365/2234.400
CANX-2 05 Mar 08:58:14 09:02:23 49° 99° (E) 09:06:32 2200.000
DOVE 4 05 Mar 09:05:35 09:09:27 37° 97° (E) 09:13:18 437.250
HO-68 05 Mar 09:09:26 09:16:33 64° 102° (ESE) 09:23:41 435.675
CUTE 1.7 + AOD 2 05 Mar 09:16:18 09:20:34 76° 101° (E) 09:24:51 437.475
TIGRISAT 05 Mar 09:24:51 09:27:27 16° 70° (ENE) 09:30:11 435.000
O/OREOS (USA 219) 05 Mar 09:32:31 09:36:50 40° 295° (WNW) 09:41:09 437.305
GONETS M04 05 Mar 09:35:49 09:44:36 79° 265° (W) 09:53:23
ANTELSAT 05 Mar 09:39:09 09:42:37 24° 71° (ENE) 09:46:09 437.575/2403.000
UWE-3 05 Mar 09:46:35 09:49:58 24° 95° (E) 09:53:27 435.000/436.395/437.385
NANOSAT C BR1 05 Mar 09:47:52 09:50:23 16° 69° (ENE) 09:53:04 145.865
AAUSAT CUBESAT 2 05 Mar 09:49:13 09:53:25 73° 283° (WNW) 09:57:36 437.432
COMPASS 1 05 Mar 09:54:14 09:58:21 54° 285° (WNW) 10:02:27 437.405
SO-50 05 Mar 09:58:24 10:03:03 40° 55° (NE) 10:07:41 436.795
Oscar 11 05 Mar 10:03:07 10:07:27 71° 101° (E) 10:11:46 145.826/435.025
RS-15 05 Mar 10:05:05 10:15:39 40° 251° (WSW) 10:26:18 29.354- 29.394
BUGSAT 1 05 Mar 10:15:20 10:18:44 24° 71° (ENE) 10:22:14 437.445
QB50P1 05 Mar 10:19:57 10:23:53 37° 73° (ENE) 10:27:52 145.935-145.965
GOMX 1 05 Mar 10:23:34 10:26:21 17° 291° (WNW) 10:28:55 467.674
QB50P2 05 Mar 10:24:44 10:28:48 44° 74° (ENE) 10:32:53 145.880/145.840
SEEDS 05 Mar 10:26:59 10:30:02 19° 290° (WNW) 10:32:57 437.485
CUSAT 1 05 Mar 10:28:44 10:30:15 14° 77° (ENE) 10:31:57 437.405
CINEMA 3 05 Mar 10:29:13 10:33:06 39° 286° (WNW) 10:36:58 145.822/145.860
CUBEBUG 2 05 Mar 10:29:45 10:33:54 76° 283° (WNW) 10:38:05 437.445
DX 1 05 Mar 10:32:32 10:36:54 66° 102° (ESE) 10:41:12 434.975-435.025
UNISAT 6 05 Mar 10:35:53 10:40:18 71° 260° (W) 10:44:37 437.425
CANX-2 05 Mar 10:36:15 10:37:57 12° 292° (WNW) 10:39:24 2200.000
HUMSAT D 05 Mar 10:36:20 10:40:11 39° 98° (E) 10:44:06 437.325/437.525
DUCHIFAT 1 05 Mar 10:36:58 10:41:11 60° 76° (ENE) 10:45:24 145.980
DELFI C3 05 Mar 10:39:28 10:43:26 49° 285° (WNW) 10:47:24 145.870
CUBEBUG 1 05 Mar 10:44:32 10:46:31 13° 91° (E) 10:48:46 437.445
DOVE 4 05 Mar 10:44:40 10:46:58 14° 291° (WNW) 10:49:05 437.250
AISAT 05 Mar 10:49:39 10:53:48 39° 98° (E) 10:57:57 437.250
FUNcube-1 05 Mar 10:54:06 10:58:12 59° 284° (WNW) 11:02:19 145.935
ZACube-1 05 Mar 10:56:30 11:00:34 54° 285° (WNW) 11:04:39 437.345
VELOX 1 05 Mar 10:57:37 11:01:55 48° 100° (E) 11:06:11 145.980
UKube-1 05 Mar 10:58:19 11:02:37 63° 285° (WNW) 11:06:53 .
HO-68 05 Mar 10:58:25 11:03:47 22° 297° (WNW) 11:08:53 435.675
POPSAT HIP 1 05 Mar 10:59:40 11:03:57 70° 259° (W) 11:08:13 437.405
TIGRISAT 05 Mar 10:59:52 11:03:58 37° 262° (W) 11:07:59 435.000
POLYITAN 1 05 Mar 11:00:43 11:04:59 66° 259° (WSW) 11:09:16 437.675
ANTELSAT 05 Mar 11:15:46 11:19:23 24° 265° (W) 11:22:51 437.575/2403.000
NANOSAT C BR1 05 Mar 11:22:01 11:26:00 36° 262° (W) 11:29:57 145.865
UWE-3 05 Mar 11:23:14 11:26:26 21° 289° (WNW) 11:29:34 435.000/436.395/437.385
ESTCUBE 1 05 Mar 11:24:27 11:28:50 46° 99° (E) 11:33:12 437.505/2401.250
50 SAT 05 Mar 11:37:05 11:40:55 48° 285° (WNW) 11:44:45 437.505
GONETS M04 05 Mar 11:37:11 11:40:18 12° 280° (W) 11:42:36
SO-50 05 Mar 11:39:40 11:43:23 21° 249° (WSW) 11:46:55 436.795
BUGSAT 1 05 Mar 11:50:42 11:54:10 23° 265° (W) 11:57:34 437.445
QB50P1 05 Mar 11:57:26 11:59:58 15° 268° (W) 12:02:18 145.935-145.965
DANDE 05 Mar 11:59:17 12:01:14 18° 265° (W) 12:03:13 436.750
QB50P2 05 Mar 12:02:59 12:04:59 13° 269° (W) 12:06:45 145.880/145.840
HUMSAT D 05 Mar 12:13:31 12:15:42 14° 291° (WNW) 12:17:43 437.325/437.525
CUBEBUG 1 05 Mar 12:19:00 12:23:12 43° 286° (WNW) 12:27:18 437.445
AISAT 05 Mar 12:27:23 12:30:08 16° 292° (WNW) 12:32:41 437.250
TISAT 1 05 Mar 12:31:58 12:36:04 51° 99° (E) 12:40:10 437.305
VELOX 1 05 Mar 12:35:54 12:38:07 13° 293° (WNW) 12:40:08 145.980
SPROUT 05 Mar 12:38:54 12:43:12 72° 101° (E) 12:47:27 437.525
ESTCUBE 1 05 Mar 13:02:46 13:05:22 15° 292° (WNW) 13:07:45 437.505/2401.250
Gurwin Techsat 1B 05 Mar 13:17:28 13:21:15 21° 68° (ENE) 13:25:13 435.225
Oscar 19 05 Mar 13:20:22 13:25:32 86° 261° (W) 13:30:41 437.125/150
ITAMSAT 1 05 Mar 13:26:09 13:30:47 34° 71° (ENE) 13:35:30 435.822/435.867
SWISSCUBE 05 Mar 13:34:49 13:39:18 39° 98° (E) 13:43:48 437.505
BEESAT 05 Mar 13:42:47 13:47:21 44° 99° (E) 13:51:56 436.000
HORYU 2 05 Mar 14:05:33 14:07:22 13° 67° (ENE) 14:09:25 437.375
TISAT 1 05 Mar 14:10:04 14:11:30 11° 293° (WNW) 14:12:41 437.305
ITUPSAT 1 05 Mar 14:11:59 14:16:50 89° 303° (WNW) 14:21:39 437.325
AO-7 05 Mar 14:14:44 14:20:33 23° 59° (ENE) 14:26:41 29.400- 29.500
YUBILEINY 05 Mar 14:31:32 14:35:27 15° 81° (E) 14:40:06 435.215
STARS 05 Mar 14:40:17 14:43:25 20° 94° (E) 14:46:40 437.465
KKS-1 05 Mar 14:40:37 14:44:34 32° 97° (E) 14:48:34 437.445
VERMONT LUNAR 05 Mar 14:50:36 14:52:47 16° 143° (SE) 14:55:03 437.305
Gurwin Techsat 1B 05 Mar 14:55:57 15:00:59 42° 262° (W) 15:06:00 435.225
JAS-2 05 Mar 14:57:36 15:01:01 17° 63° (ENE) 15:04:57 435.910
ISS 05 Mar 15:00:08 15:03:18 50° 41° (NE) 15:06:27 145.825
ITAMSAT 1 05 Mar 15:06:06 15:10:21 24° 265° (W) 15:14:30 435.822/435.867
SWISSCUBE 05 Mar 15:13:31 15:16:55 19° 292° (WNW) 15:20:08 437.505
PHONESAT 2.4 05 Mar 15:17:59 15:19:30 12° 142° (SE) 15:21:09 2401.200-2431.200
BEESAT 05 Mar 15:21:47 15:24:54 17° 292° (WNW) 15:27:49 436.000
HORYU 2 05 Mar 15:39:21 15:43:39 50° 260° (W) 15:47:58 437.375
BEESAT 2 05 Mar 15:43:20 15:45:58 17° 111° (ESE) 15:48:47 435.950
AO-7 05 Mar 16:04:19 16:12:39 75° 255° (WSW) 16:21:00 29.400- 29.500
AUBIESAT-1 05 Mar 16:04:29 16:06:19 13° 97° (E) 16:08:29 437.475
M-CUBED/EXP-1 PRIME 05 Mar 16:04:48 16:07:12 15° 97° (E) 16:09:54 437.505
MOZHAYETS 4 05 Mar 16:15:47 16:18:39 17° 92° (E) 16:21:44
STARS 05 Mar 16:16:07 16:19:57 29° 288° (WNW) 16:23:43 437.465
KKS-1 05 Mar 16:17:50 16:21:02 19° 291° (WNW) 16:24:04 437.445
YUBILEINY 05 Mar 16:22:31 16:31:16 89° 280° (W) 16:40:07 435.215
VERMONT LUNAR 05 Mar 16:26:53 16:30:22 87° 333° (NNW) 16:33:53 437.305
ISS 05 Mar 16:38:14 16:39:26 11° 232° (SW) 16:40:29 145.825
JAS-2 05 Mar 16:40:09 16:45:31 58° 261° (W) 16:51:32 435.910
BEESAT 3 05 Mar 16:50:32 16:54:34 61° 301° (WNW) 16:58:39 437.485
PHONESAT 2.4 05 Mar 16:53:57 16:57:34 72° 154° (SSE) 17:01:12 2401.200-2431.200
Cubesat XI-IV 05 Mar 17:18:05 17:22:41 31° 70° (ENE) 17:27:24 437.490
BEESAT 2 05 Mar 17:20:09 17:23:55 34° 305° (NW) 17:27:43 435.950
CUTE-I 05 Mar 17:25:49 17:30:38 36° 71° (ENE) 17:35:33 437.470
AIST 2 05 Mar 17:35:26 17:39:39 66° 300° (WNW) 17:43:55 435.215
AUBIESAT-1 05 Mar 17:37:04 17:41:24 55° 289° (WNW) 17:45:59 437.475
M-CUBED/EXP-1 PRIME 05 Mar 17:38:00 17:42:16 48° 290° (WNW) 17:46:47 437.505
AIST 1 05 Mar 17:47:28 17:51:18 29° 77° (ENE) 17:55:09
MOZHAYETS 4 05 Mar 17:51:45 17:56:05 39° 287° (WNW) 18:00:23
AO-7 05 Mar 18:04:54 18:06:56 11° 273° (W) 18:08:06 29.400- 29.500
VERMONT LUNAR 05 Mar 18:05:21 18:08:31 32° 352° (N) 18:11:43 437.305
O/OREOS (USA 219) 05 Mar 18:07:37 18:10:41 18° 59° (ENE) 18:13:52 437.305
STRAND 1 05 Mar 18:12:42 18:14:50 13° 90° (E) 18:17:17 437.568
CUBESAT XI-V 05 Mar 18:23:11 18:27:15 29° 96° (E) 18:31:22 437.345
YUBILEINY 05 Mar 18:24:30 18:29:34 15° 297° (WNW) 18:34:02 435.215
PHONESAT 2.4 05 Mar 18:32:48 18:36:12 36° 350° (N) 18:39:37 2401.200-2431.200
Cubesat XI-IV 05 Mar 18:58:08 19:02:46 28° 264° (W) 19:07:20 437.490
PCSat 05 Mar 19:00:27 19:04:09 20° 107° (ESE) 19:08:05 145.827
CUTE-I 05 Mar 19:06:27 19:10:49 24° 266° (W) 19:15:03 437.470
PRISM 05 Mar 19:18:48 19:22:58 59° 285° (WNW) 19:27:06 437.425
AIST 1 05 Mar 19:25:43 19:28:47 18° 271° (W) 19:31:41
HO-68 05 Mar 19:34:41 19:40:48 33° 66° (ENE) 19:47:06 435.675
SEEDS 05 Mar 19:41:08 19:43:11 14° 69° (ENE) 19:45:28 437.485
VERMONT LUNAR 05 Mar 19:43:42 19:46:55 33° 9° (N) 19:50:08 437.305
O/OREOS (USA 219) 05 Mar 19:46:03 19:50:18 37° 255° (WSW) 19:54:28 437.305
CANX-2 05 Mar 19:48:33 19:51:50 23° 71° (ENE) 19:55:12 2200.000
GOMX 1 05 Mar 19:48:36 19:53:08 30° 72° (ENE) 19:57:34 467.674
STRAND 1 05 Mar 19:49:27 19:54:32 60° 285° (WNW) 19:59:33 437.568
BRITE-PL 05 Mar 20:00:07 20:05:39 59° 76° (ENE) 20:10:58 437.365/2234.400
CUBESAT XI-V 05 Mar 20:00:50 20:04:35 23° 290° (WNW) 20:08:11 437.345
CUTE 1.7 + AOD 2 05 Mar 20:06:06 20:09:51 33° 73° (ENE) 20:13:41 437.475
DOVE 4 05 Mar 20:07:22 20:11:45 31° 73° (ENE) 20:16:03 437.250
PHONESAT 2.4 05 Mar 20:11:49 20:15:09 33° 7° (N) 20:18:29 2401.200-2431.200
AAUSAT CUBESAT 2 05 Mar 20:36:48 20:40:44 45° 75° (ENE) 20:44:43 437.432
GONETS M04 05 Mar 20:38:15 20:44:30 24° 85° (E) 20:51:08
UWE-3 05 Mar 20:41:43 20:44:04 15° 70° (ENE) 20:46:35 435.000/436.395/437.385
COMPASS 1 05 Mar 20:41:59 20:46:04 63° 77° (ENE) 20:50:12 437.405
PCSat 05 Mar 20:42:04 20:47:16 46° 301° (WNW) 20:52:29 145.827
Oscar 11 05 Mar 20:54:42 20:58:34 34° 73° (ENE) 21:02:29 145.826/435.025
SEEDS 05 Mar 21:14:48 21:18:43 39° 262° (W) 21:22:39 437.485
VERMONT LUNAR 05 Mar 21:21:31 21:25:01 80° 206° (SSW) 21:28:29 437.305
HO-68 05 Mar 21:21:44 21:28:24 41° 262° (W) 21:35:03 435.675
DELFI C3 05 Mar 21:23:45 21:27:42 59° 76° (ENE) 21:31:41 145.870
CANX-2 05 Mar 21:24:17 21:27:43 23° 265° (W) 21:31:04 2200.000
CUBEBUG 2 05 Mar 21:24:22 21:28:47 57° 76° (ENE) 21:33:05 437.445
DX 1 05 Mar 21:24:51 21:28:51 36° 73° (ENE) 21:32:54 434.975-435.025
HUMSAT D 05 Mar 21:25:56 21:28:48 19° 71° (ENE) 21:31:45 437.325/437.525
GOMX 1 05 Mar 21:26:32 21:31:12 29° 264° (W) 21:35:35 467.674
CINEMA 3 05 Mar 21:26:44 21:31:30 71° 258° (WSW) 21:36:05 145.822/145.860
BRITE-PL 05 Mar 21:41:03 21:44:29 16° 269° (W) 21:47:33 437.365/2234.400
CUTE 1.7 + AOD 2 05 Mar 21:43:15 21:45:56 16° 268° (W) 21:48:27 437.475
AISAT 05 Mar 21:44:40 21:48:15 24° 71° (ENE) 21:51:56 437.250
DOVE 4 05 Mar 21:45:14 21:49:30 25° 265° (W) 21:53:31 437.250
FUNcube-1 05 Mar 21:46:14 21:50:34 67° 76° (ENE) 21:54:49 145.935
ZACube-1 05 Mar 21:48:46 21:53:08 74° 77° (ENE) 21:57:24 437.345
UKube-1 05 Mar 21:49:33 21:53:52 69° 76° (ENE) 21:58:13 .
PHONESAT 2.4 05 Mar 21:50:14 21:53:53 82° 20° (NNE) 21:57:31 2401.200-2431.200
VELOX 1 05 Mar 21:52:14 21:56:03 29° 71° (ENE) 21:59:56 145.980
RS-15 05 Mar 22:11:48 22:21:55 48° 110° (ESE) 22:32:13 29.354- 29.394
AAUSAT CUBESAT 2 05 Mar 22:15:21 22:16:42 11° 270° (W) 22:17:48 437.432
UWE-3 05 Mar 22:16:09 22:20:22 41° 262° (W) 22:24:27 435.000/436.395/437.385
50 SAT 05 Mar 22:20:01 22:23:54 57° 76° (ENE) 22:27:48 437.505
ESTCUBE 1 05 Mar 22:21:06 22:24:55 28° 71° (ENE) 22:28:49 437.505/2401.250
DUCHIFAT 1 05 Mar 22:27:33 22:29:13 12° 91° (E) 22:31:08 145.980
UNISAT 6 05 Mar 22:31:39 22:35:27 29° 97° (E) 22:39:19 437.425
Oscar 11 05 Mar 22:32:06 22:34:54 16° 268° (W) 22:37:31 145.826/435.025
GONETS M04 05 Mar 22:32:12 22:40:46 62° 280° (W) 22:49:21
POPSAT HIP 1 05 Mar 22:49:13 22:52:37 24° 95° (E) 22:56:04 437.405
POLYITAN 1 05 Mar 22:50:28 22:53:57 25° 96° (E) 22:57:29 437.675
TIGRISAT 05 Mar 22:54:38 22:58:52 55° 100° (E) 23:03:10 435.000
HUMSAT D 05 Mar 23:00:44 23:04:25 29° 264° (W) 23:08:02 437.325/437.525
VERMONT LUNAR 05 Mar 23:00:47 23:02:33 13° 218° (SW) 23:04:13 437.305
DX 1 05 Mar 23:02:26 23:05:16 16° 267° (W) 23:07:55 434.975-435.025
CUBEBUG 2 05 Mar 23:05:23 23:05:52 10° 270° (W) 23:06:02 437.445
ANTELSAT 05 Mar 23:10:10 23:14:31 88° 102° (ESE) 23:18:55 437.575/2403.000
NANOSAT C BR1 05 Mar 23:10:29 23:14:30 44° 99° (E) 23:18:31 145.865
CUBEBUG 1 05 Mar 23:11:12 23:15:39 84° 258° (WSW) 23:20:08 437.445
AISAT 05 Mar 23:21:01 23:24:48 26° 264° (W) 23:28:31 437.250
TISAT 1 05 Mar 23:21:22 23:24:50 25° 71° (ENE) 23:28:23 437.305
DANDE 05 Mar 23:22:31 23:28:38 37° 97° (E) 23:33:28 436.750
VELOX 1 05 Mar 23:29:08 23:32:39 22° 266° (W) 23:36:03 145.980
PHONESAT 2.4 05 Mar 23:29:28 23:32:03 18° 216° (SW) 23:34:35 2401.200-2431.200
SPROUT 05 Mar 23:29:48 23:33:43 35° 73° (ENE) 23:37:41 437.525
CUSAT 1 05 Mar 23:31:18 23:37:25 54° 98° (E) 23:42:04 437.405
BUGSAT 1 05 Mar 23:35:49 23:39:56 66° 100° (E) 23:43:59 437.445
QB50P1 05 Mar 23:44:11 23:48:23 68° 284° (WNW) 23:52:32 145.935-145.965
JUGNU 05 Mar 23:46:21 23:47:40 11° 165° (SSE) 23:49:06 437.505
QB50P2 05 Mar 23:49:22 23:53:31 57° 285° (WNW) 23:57:38 145.880/145.840
ESTCUBE 1 05 Mar 23:58:12 00:01:48 22° 266° (W) 00:05:18 437.505/2401.250
DUCHIFAT 1 06 Mar 00:01:21 00:05:21 42° 286° (WNW) 00:09:17 145.980
UNISAT 6 06 Mar 00:08:54 00:12:06 20° 290° (WNW) 00:15:11 437.425
SO-50 06 Mar 00:10:07 00:13:56 27° 112° (ESE) 00:17:56 436.795
RS-15 06 Mar 00:24:02 00:34:22 45° 311° (NW) 00:44:44 29.354- 29.394
POPSAT HIP 1 06 Mar 00:25:06 00:28:27 22° 289° (WNW) 00:31:40 437.405
POLYITAN 1 06 Mar 00:26:31 00:29:47 21° 289° (WNW) 00:32:56 437.675
TIGRISAT 06 Mar 00:33:55 00:35:15 11° 292° (WNW) 00:36:21 435.000
SWISSCUBE 06 Mar 00:38:16 00:42:24 31° 71° (ENE) 00:46:38 437.505
BEESAT 06 Mar 00:46:05 00:50:19 34° 72° (ENE) 00:54:40 436.000
NANOSAT C BR1 06 Mar 00:48:01 00:50:02 13° 292° (WNW) 00:51:50 145.865
TISAT 1 06 Mar 00:57:10 01:00:36 22° 265° (W) 01:03:56 437.305
DANDE 06 Mar 01:06:35 01:11:55 25° 282° (WNW) 01:16:05 436.750
SPROUT 06 Mar 01:07:07 01:09:57 16° 268° (W) 01:12:36 437.525
BEESAT 3 06 Mar 01:13:22 01:16:52 27° 53° (NE) 01:20:22 437.485
ITUPSAT 1 06 Mar 01:15:14 01:19:59 70° 75° (ENE) 01:24:47 437.325
CUSAT 1 06 Mar 01:17:01 01:20:13 14° 284° (WNW) 01:22:45 437.405
JUGNU 06 Mar 01:32:10 01:35:59 18° 174° (S) 01:39:49 437.505
STARS 06 Mar 01:35:38 01:37:18 12° 67° (ENE) 01:39:13 437.465
Oscar 19 06 Mar 01:35:40 01:40:33 44° 99° (E) 01:45:28 437.125/150
KKS-1 06 Mar 01:36:08 01:39:22 20° 70° (ENE) 01:42:42 437.445
SRMSAT 06 Mar 01:42:06 01:44:35 13° 167° (SSE) 01:47:11 437.500
BEESAT 2 06 Mar 01:42:43 01:46:43 47° 58° (ENE) 01:50:41 435.950
ITAMSAT 1 06 Mar 01:43:41 01:46:41 16° 91° (E) 01:49:55 435.822/435.867
SO-50 06 Mar 01:50:27 01:54:25 28° 308° (NW) 01:58:28 436.795
AIST 2 06 Mar 02:00:59 02:04:39 28° 53° (NE) 02:08:18 435.215
SWISSCUBE 06 Mar 02:16:30 02:20:18 23° 265° (W) 02:24:01 437.505
BEESAT 06 Mar 02:24:41 02:28:17 20° 266° (W) 02:31:45 436.000
YUBILEINY 06 Mar 02:37:33 02:45:35 39° 74° (ENE) 02:53:43 435.215
RS-15 06 Mar 02:45:25 02:50:54 14° 341° (NNW) 02:56:04 29.354- 29.394
BEESAT 3 06 Mar 02:51:37 02:54:50 22° 248° (WSW) 02:57:56 437.485
STARS 06 Mar 03:09:04 03:13:24 52° 260° (W) 03:17:43 437.465
KKS-1 06 Mar 03:11:51 03:15:51 31° 263° (W) 03:19:48 437.445
Gurwin Techsat 1B 06 Mar 03:15:24 03:20:44 79° 285° (WNW) 03:26:02 435.225
Oscar 19 06 Mar 03:16:03 03:19:37 19° 292° (WNW) 03:23:00 437.125/150
MOZHAYETS 4 06 Mar 03:16:35 03:17:34 11° 67° (ENE) 03:18:52
JUGNU 06 Mar 03:20:22 03:24:19 18° 184° (S) 03:28:16 437.505
ITAMSAT 1 06 Mar 03:21:29 03:26:33 51° 287° (WNW) 03:31:32 435.822/435.867
BEESAT 2 06 Mar 03:22:50 03:24:31 12° 251° (WSW) 03:25:58 435.950
SRMSAT 06 Mar 03:29:02 03:33:05 19° 176° (S) 03:37:10 437.500
HORYU 2 06 Mar 03:34:14 03:38:24 39° 99° (E) 03:42:36 437.375
AIST 2 06 Mar 03:39:47 03:43:08 22° 249° (WSW) 03:46:21 435.215
JAS-2 06 Mar 03:52:16 03:58:36 28° 93° (E) 04:05:15 435.910
AO-7 06 Mar 04:10:06 04:17:59 48° 100° (E) 04:25:55 29.400- 29.500
AUBIESAT-1 06 Mar 04:23:17 04:26:34 66° 254° (WSW) 04:30:00 437.475
M-CUBED/EXP-1 PRIME 06 Mar 04:24:43 04:27:56 53° 255° (WSW) 04:31:18 437.505
YUBILEINY 06 Mar 04:34:20 04:42:26 40° 272° (W) 04:50:21 435.215
MOZHAYETS 4 06 Mar 04:49:50 04:54:20 63° 260° (W) 04:58:54
RS-15 06 Mar 05:05:04 05:10:13 14° 18° (NNE) 05:15:52 29.354- 29.394
JUGNU 06 Mar 05:10:21 05:12:40 12° 193° (SSW) 05:14:53 437.505
HORYU 2 06 Mar 05:11:57 05:14:48 16° 292° (WNW) 05:17:27 437.375
SRMSAT 06 Mar 05:17:42 05:21:37 18° 186° (S) 05:25:30 437.500
CUBESAT XI-V 06 Mar 05:23:50 05:27:11 20° 70° (ENE) 05:30:41 437.345
STRAND 1 06 Mar 05:25:28 05:28:01 14° 66° (ENE) 05:30:50 437.568
PCSat 06 Mar 05:33:13 05:38:37 66° 62° (ENE) 05:43:59 145.827
JAS-2 06 Mar 05:36:27 05:43:53 55° 288° (WNW) 05:51:27 435.910
Cubesat XI-IV 06 Mar 05:39:56 05:43:00 16° 91° (E) 05:46:20 437.490
CUTE-I 06 Mar 05:47:19 05:50:56 19° 93° (E) 05:54:43 437.470
AO-7 06 Mar 06:03:18 06:10:36 35° 296° (WNW) 06:17:42 29.400- 29.500
PRISM 06 Mar 06:05:33 06:09:37 60° 75° (ENE) 06:13:44 437.425
AIST 1 06 Mar 06:13:52 06:17:05 21° 89° (E) 06:20:26
CUBESAT XI-V 06 Mar 07:00:09 07:04:26 34° 264° (W) 07:08:42 437.345
STRAND 1 06 Mar 07:01:41 07:06:46 60° 259° (W) 07:11:53 437.568
SRMSAT 06 Mar 07:08:44 07:10:06 11° 195° (SSW) 07:11:22 437.500
RS-15 06 Mar 07:16:21 07:27:00 43° 49° (NE) 07:38:14 29.354- 29.394
Cubesat XI-IV 06 Mar 07:18:16 07:23:30 53° 287° (WNW) 07:28:40 437.490
PCSat 06 Mar 07:18:53 07:21:32 13° 255° (WSW) 07:23:52 145.827
CUTE-I 06 Mar 07:26:10 07:31:16 45° 288° (WNW) 07:36:18 437.470
ISS 06 Mar 07:36:51 07:40:04 69° 318° (NW) 07:43:17 145.825
AIST 1 06 Mar 07:50:58 07:54:38 25° 284° (WNW) 07:58:15
BRITE-PL 06 Mar 08:10:24 08:13:31 20° 93° (E) 08:16:39 437.365/2234.400
O/OREOS (USA 219) 06 Mar 08:15:25 08:19:34 37° 105° (ESE) 08:23:48 437.305
